Time,TemperatureF,DewpointF,PressureIn,WindDirection,WindDirectionDegrees,WindSpeedMPH,WindSpeedGustMPH,Humidity,HourlyPrecipIn,Conditions,Clouds,dailyrainin,SoftwareType,DateUTC
2013-04-19 00:05:00,56.4,16.0,30.41,West,266,1.0,5.0,20,0.00,,,0.00,weatherlink.com 1.10,2013-04-19 07:05:00,
2013-04-19 00:20:00,55.9,15.0,30.41,WSW,254,3.0,5.0,20,0.00,,,0.00,weatherlink.com 1.10,2013-04-19 07:20:00,
2013-04-19 00:35:00,55.1,17.0,30.41,WSW,252,1.0,3.0,22,0.00,,,0.00,weatherlink.com 1.10,2013-04-19 07:35:00,
2013-04-19 00:50:00,55.2,15.0,30.41,WSW,254,0.0,3.0,20,0.00,,,0.00,weatherlink.com 1.10,2013-04-19 07:50:00,
2013-04-19 01:05:00,54.8,14.0,30.41,WSW,254,0.0,3.0,20,0.00,,,0.00,weatherlink.com 1.10,2013-04-19 08:05:00,
2013-04-19 01:20:00,53.9,17.0,30.41,WSW,254,0.0,1.0,23,0.00,,,0.00,weatherlink.com 1.10,2013-04-19 08:20:00,
2013-04-19 01:35:00,52.3,17.0,30.41,WSW,254,0.0,0.0,25,0.00,,,0.00,weatherlink.com 1.10,2013-04-19 08:35:00,
2013-04-19 01:50:00,52.0,17.0,30.41,WSW,254,0.0,2.0,25,0.00,,,0.00,weatherlink.com 1.10,2013-04-19 08:50:00,
2013-04-19 02:05:00,52.6,18.0,30.41,WSW,254,2.0,4.0,26,0.00,,,0.00,weatherlink.com 1.10,2013-04-19 09:05:00,
2013-04-19 02:20:00,52.5,18.0,30.41,WSW,250,2.0,4.0,26,0.00,,,0.00,weatherlink.com 1.10,2013-04-19 09:20:00,
2013-04-19 02:35:00,52.4,17.0,30.41,WSW,251,1.0,4.0,25,0.00,,,0.00,weatherlink.com 1.10,2013-04-19 09:35:00,
2013-04-19 02:50:00,52.1,17.0,30.41,WSW,252,0.0,2.0,25,0.00,,,0.00,weatherlink.com 1.10,2013-04-19 09:50:00,
2013-04-19 03:05:00,51.5,17.0,30.41,WSW,252,0.0,4.0,26,0.00,,,0.00,weatherlink.com 1.10,2013-04-19 10:05:00,
2013-04-19 03:20:00,51.9,16.0,30.41,WSW,254,1.0,5.0,24,0.00,,,0.00,weatherlink.com 1.10,2013-04-19 10:20:00,
2013-04-19 03:35:00,51.2,18.0,30.41,WSW,255,0.0,2.0,27,0.00,,,0.00,weatherlink.com 1.10,2013-04-19 10:35:00,
2013-04-19 03:50:00,50.8,17.0,30.41,WSW,251,0.0,3.0,26,0.00,,,0.00,weatherlink.com 1.10,2013-04-19 10:50:00,
2013-04-19 04:05:00,50.6,18.0,30.41,WSW,251,1.0,6.0,27,0.00,,,0.00,weatherlink.com 1.10,2013-04-19 11:05:00,
2013-04-19 04:20:00,50.8,15.0,30.41,WSW,250,4.0,4.0,24,0.00,,,0.00,weatherlink.com 1.10,2013-04-19 11:20:00,
2013-04-19 04:35:00,51.3,15.0,30.41,WSW,252,3.0,5.0,24,0.00,,,0.00,weatherlink.com 1.10,2013-04-19 11:35:00,
2013-04-19 04:50:00,50.9,16.0,30.41,WSW,252,2.0,4.0,25,0.00,,,0.00,weatherlink.com 1.10,2013-04-19 11:50:00,
2013-04-19 05:05:00,51.3,15.0,30.40,WSW,252,5.0,6.0,24,0.00,,,0.00,weatherlink.com 1.10,2013-04-19 12:05:00,
2013-04-19 05:20:00,51.4,16.0,30.40,WSW,252,2.0,5.0,24,0.00,,,0.00,weatherlink.com 1.10,2013-04-19 12:20:00,
2013-04-19 05:35:00,50.3,17.0,30.40,WSW,254,0.0,1.0,27,0.00,,,0.00,weatherlink.com 1.10,2013-04-19 12:35:00,
2013-04-19 05:50:00,48.2,19.0,30.40,WSW,254,0.0,0.0,31,0.00,,,0.00,weatherlink.com 1.10,2013-04-19 12:50:00,
2013-04-19 06:05:00,46.9,19.0,30.40,WSW,254,0.0,1.0,33,0.00,,,0.00,weatherlink.com 1.10,2013-04-19 13:05:00,
2013-04-19 06:20:00,46.8,18.0,30.41,WSW,254,0.0,0.0,32,0.00,,,0.00,weatherlink.com 1.10,2013-04-19 13:20:00,
2013-04-19 06:35:00,46.6,20.0,30.42,WSW,254,0.0,0.0,35,0.00,,,0.00,weatherlink.com 1.10,2013-04-19 13:35:00,
2013-04-19 06:50:00,48.2,22.0,30.42,WSW,254,0.0,0.0,35,0.00,,,0.00,weatherlink.com 1.10,2013-04-19 13:50:00,
2013-04-19 07:05:00,50.5,21.0,30.42,WSW,254,0.0,0.0,31,0.00,,,0.00,weatherlink.com 1.10,2013-04-19 14:05:00,
2013-04-19 07:20:00,53.1,21.0,30.43,WSW,255,0.0,0.0,28,0.00,,,0.00,weatherlink.com 1.10,2013-04-19 14:20:00,
2013-04-19 07:36:00,54.8,24.0,30.44,WSW,254,0.0,1.0,30,0.00,,,0.00,weatherlink.com 1.10,2013-04-19 14:36:00,
2013-04-19 07:51:00,56.7,23.0,30.44,WSW,255,1.0,1.0,27,0.00,,,0.00,weatherlink.com 1.10,2013-04-19 14:51:00,
2013-04-19 08:06:00,58.4,22.0,30.44,WSW,255,0.0,1.0,24,0.00,,,0.00,weatherlink.com 1.10,2013-04-19 15:06:00,
2013-04-19 08:21:00,60.0,21.0,30.43,WSW,254,0.0,1.0,22,0.00,,,0.00,weatherlink.com 1.10,2013-04-19 15:21:00,
2013-04-19 08:36:00,61.7,20.0,30.43,WSW,255,0.0,2.0,20,0.00,,,0.00,weatherlink.com 1.10,2013-04-19 15:36:00,
2013-04-19 08:51:00,63.1,19.0,30.43,WSW,255,0.0,1.0,18,0.00,,,0.00,weatherlink.com 1.10,2013-04-19 15:51:00,
2013-04-19 09:06:00,64.8,17.0,30.43,WSW,258,1.0,3.0,16,0.00,,,0.00,weatherlink.com 1.10,2013-04-19 16:06:00,
2013-04-19 09:21:00,65.1,18.0,30.42,WSW,258,0.0,3.0,16,0.00,,,0.00,weatherlink.com 1.10,2013-04-19 16:21:00,
2013-04-19 09:36:00,65.8,18.0,30.42,NNW,339,0.0,3.0,16,0.00,,,0.00,weatherlink.com 1.10,2013-04-19 16:36:00,
2013-04-19 09:51:00,66.9,18.0,30.41,ENE,61,2.0,4.0,15,0.00,,,0.00,weatherlink.com 1.10,2013-04-19 16:51:00,
2013-04-19 10:06:00,66.8,18.0,30.41,North,360,2.0,2.0,15,0.00,,,0.00,weatherlink.com 1.10,2013-04-19 17:06:00,
2013-04-19 10:21:00,68.0,17.0,30.41,East,93,1.0,3.0,14,0.00,,,0.00,weatherlink.com 1.10,2013-04-19 17:21:00,
2013-04-19 10:36:00,69.0,18.0,30.41,North,355,0.0,4.0,14,0.00,,,0.00,weatherlink.com 1.10,2013-04-19 17:36:00,
2013-04-19 10:51:00,70.0,19.0,30.40,ESE,109,1.0,3.0,14,0.00,,,0.00,weatherlink.com 1.10,2013-04-19 17:51:00,
2013-04-19 11:06:00,69.9,18.0,30.38,ESE,107,1.0,8.0,14,0.00,,,0.00,weatherlink.com 1.10,2013-04-19 18:06:00,
2013-04-19 11:21:00,70.7,19.0,30.38,NE,35,4.0,5.0,14,0.00,,,0.00,weatherlink.com 1.10,2013-04-19 18:21:00,
2013-04-19 11:36:00,71.3,18.0,30.37,ENE,62,1.0,5.0,13,0.00,,,0.00,weatherlink.com 1.10,2013-04-19 18:36:00,
2013-04-19 11:51:00,72.4,19.0,30.37,ENE,67,1.0,5.0,13,0.00,,,0.00,weatherlink.com 1.10,2013-04-19 18:51:00,
2013-04-19 12:06:00,73.3,18.0,30.35,East,96,1.0,5.0,12,0.00,,,0.00,weatherlink.com 1.10,2013-04-19 19:06:00,
2013-04-19 12:21:00,73.8,18.0,30.34,North,5,4.0,5.0,12,0.00,,,0.00,weatherlink.com 1.10,2013-04-19 19:21:00,
2013-04-19 12:37:00,75.1,17.0,30.33,North,355,3.0,7.0,11,0.00,,,0.00,weatherlink.com 1.10,2013-04-19 19:37:00,
2013-04-19 13:07:00,76.8,14.0,30.31,East,99,1.0,4.0,9,0.00,,,0.00,weatherlink.com 1.10,2013-04-19 20:07:00,
2013-04-19 13:22:00,76.5,16.0,30.30,NE,38,2.0,6.0,10,0.00,,,0.00,weatherlink.com 1.10,2013-04-19 20:22:00,
2013-04-19 13:37:00,76.5,13.0,30.29,ESE,109,2.0,8.0,9,0.00,,,0.00,weatherlink.com 1.10,2013-04-19 20:37:00,
2013-04-19 13:52:00,76.2,13.0,30.28,ESE,115,0.0,8.0,9,0.00,,,0.00,weatherlink.com 1.10,2013-04-19 20:52:00,
2013-04-19 14:07:00,77.8,17.0,30.27,ENE,71,2.0,7.0,10,0.00,,,0.00,weatherlink.com 1.10,2013-04-19 21:07:00,
2013-04-19 14:22:00,77.9,15.0,30.25,SW,232,0.0,7.0,9,0.00,,,0.00,weatherlink.com 1.10,2013-04-19 21:22:00,
2013-04-19 14:37:00,79.6,16.0,30.24,ENE,63,2.0,7.0,9,0.00,,,0.00,weatherlink.com 1.10,2013-04-19 21:37:00,
2013-04-19 14:52:00,78.2,15.0,30.23,NE,42,1.0,8.0,9,0.00,,,0.00,weatherlink.com 1.10,2013-04-19 21:52:00,
2013-04-19 15:07:00,78.5,17.0,30.21,ENE,63,3.0,8.0,10,0.00,,,0.00,weatherlink.com 1.10,2013-04-19 22:07:00,
2013-04-19 15:22:00,77.2,16.0,30.20,ENE,66,0.0,5.0,10,0.00,,,0.00,weatherlink.com 1.10,2013-04-19 22:22:00,
2013-04-19 15:37:00,76.6,16.0,30.18,East,90,2.0,7.0,10,0.00,,,0.00,weatherlink.com 1.10,2013-04-19 22:37:00,
2013-04-19 15:52:00,77.3,17.0,30.18,ENE,63,2.0,8.0,10,0.00,,,0.00,weatherlink.com 1.10,2013-04-19 22:52:00,
2013-04-19 16:07:00,77.4,17.0,30.17,East,91,1.0,7.0,10,0.00,,,0.00,weatherlink.com 1.10,2013-04-19 23:07:00,
2013-04-19 16:22:00,77.6,14.0,30.16,ESE,120,1.0,4.0,9,0.00,,,0.00,weatherlink.com 1.10,2013-04-19 23:22:00,
2013-04-19 16:37:00,78.3,15.0,30.16,ENE,61,1.0,4.0,9,0.00,,,0.00,weatherlink.com 1.10,2013-04-19 23:37:00,
2013-04-19 16:52:00,78.9,15.0,30.15,NE,45,2.0,5.0,9,0.00,,,0.00,weatherlink.com 1.10,2013-04-19 23:52:00,
2013-04-19 17:07:00,78.5,15.0,30.14,ENE,66,1.0,5.0,9,0.00,,,0.00,weatherlink.com 1.10,2013-04-20 00:07:00,
2013-04-19 17:22:00,79.2,13.0,30.13,ESE,119,1.0,5.0,8,0.00,,,0.00,weatherlink.com 1.10,2013-04-20 00:22:00,
2013-04-19 17:37:00,79.0,13.0,30.12,SE,140,0.0,5.0,8,0.00,,,0.00,weatherlink.com 1.10,2013-04-20 00:37:00,
2013-04-19 17:52:00,77.8,14.0,30.12,ENE,77,0.0,3.0,9,0.00,,,0.00,weatherlink.com 1.10,2013-04-20 00:52:00,
2013-04-19 18:07:00,77.1,14.0,30.11,ENE,64,0.0,1.0,9,0.00,,,0.00,weatherlink.com 1.10,2013-04-20 01:07:00,
2013-04-19 18:22:00,76.9,14.0,30.10,East,80,0.0,3.0,9,0.00,,,0.00,weatherlink.com 1.10,2013-04-20 01:22:00,
2013-04-19 18:38:00,76.6,14.0,30.10,NW,304,1.0,2.0,9,0.00,,,0.00,weatherlink.com 1.10,2013-04-20 01:38:00,
2013-04-19 18:53:00,76.4,16.0,30.09,West,271,0.0,1.0,10,0.00,,,0.00,weatherlink.com 1.10,2013-04-20 01:53:00,
2013-04-19 19:08:00,76.2,16.0,30.09,WSW,242,0.0,4.0,10,0.00,,,0.00,weatherlink.com 1.10,2013-04-20 02:08:00,
2013-04-19 19:23:00,75.7,15.0,30.09,WSW,242,0.0,2.0,10,0.00,,,0.00,weatherlink.com 1.10,2013-04-20 02:23:00,
2013-04-19 19:38:00,75.2,17.0,30.09,WSW,254,5.0,6.0,11,0.00,,,0.00,weatherlink.com 1.10,2013-04-20 02:38:00,
2013-04-19 19:53:00,75.3,17.0,30.09,WSW,253,4.0,6.0,11,0.00,,,0.00,weatherlink.com 1.10,2013-04-20 02:53:00,
2013-04-19 20:08:00,74.3,16.0,30.09,WSW,253,4.0,6.0,11,0.00,,,0.00,weatherlink.com 1.10,2013-04-20 03:08:00,
2013-04-19 20:23:00,74.3,14.0,30.09,WSW,254,3.0,8.0,10,0.00,,,0.00,weatherlink.com 1.10,2013-04-20 03:23:00,
2013-04-19 20:38:00,73.7,16.0,30.09,WSW,254,3.0,6.0,11,0.00,,,0.00,weatherlink.com 1.10,2013-04-20 03:38:00,
2013-04-19 20:53:00,73.6,14.0,30.09,West,259,0.0,8.0,10,0.00,,,0.00,weatherlink.com 1.10,2013-04-20 03:53:00,
2013-04-19 21:08:00,73.4,16.0,30.09,South,189,4.0,11.0,11,0.00,,,0.00,weatherlink.com 1.10,2013-04-20 04:08:00,
2013-04-19 21:23:00,73.1,15.0,30.09,West,265,4.0,9.0,11,0.00,,,0.00,weatherlink.com 1.10,2013-04-20 04:23:00,
2013-04-19 21:38:00,73.0,13.0,30.09,WSW,246,6.0,7.0,10,0.00,,,0.00,weatherlink.com 1.10,2013-04-20 04:38:00,
2013-04-19 21:53:00,72.6,15.0,30.09,SW,236,4.0,7.0,11,0.00,,,0.00,weatherlink.com 1.10,2013-04-20 04:53:00,
2013-04-19 22:08:00,72.5,13.0,30.09,West,279,5.0,11.0,10,0.00,,,0.00,weatherlink.com 1.10,2013-04-20 05:08:00,
2013-04-19 22:23:00,72.6,15.0,30.08,West,263,8.0,9.0,11,0.00,,,0.00,weatherlink.com 1.10,2013-04-20 05:23:00,
2013-04-19 22:38:00,72.2,13.0,30.08,WSW,250,2.0,7.0,10,0.00,,,0.00,weatherlink.com 1.10,2013-04-20 05:38:00,
2013-04-19 22:53:00,72.0,12.0,30.07,SSW,198,2.0,5.0,10,0.00,,,0.00,weatherlink.com 1.10,2013-04-20 05:53:00,
2013-04-19 23:08:00,71.8,12.0,30.07,SW,214,0.0,10.0,10,0.00,,,0.00,weatherlink.com 1.10,2013-04-20 06:08:00,
2013-04-19 23:23:00,71.5,12.0,30.07,SW,228,2.0,9.0,10,0.00,,,0.00,weatherlink.com 1.10,2013-04-20 06:23:00,
2013-04-19 23:38:00,71.5,12.0,30.07,SSW,207,4.0,13.0,10,0.00,,,0.00,weatherlink.com 1.10,2013-04-20 06:38:00,
2013-04-19 23:53:00,71.2,12.0,30.07,SSW,197,4.0,13.0,10,0.00,,,0.00,weatherlink.com 1.10,2013-04-20 06:53:00,